Weather History for Morgantown, WV

Change the Weather History Date:

Thursday, August 29, 2013

  Actual Average Record
Temperature  
Mean Temperature 77 °F 71 °F  
Max Temperature 84 °F 81 °F 96 °F (1953)
Min Temperature 69 °F 60 °F 38 °F (1982)
Degree Days  
Heating Degree Days 0 0  
Month to date heating degree days 8 0  
Since 1 June heating degree days 20 34  
Since 1 July heating degree days 9 3  
Cooling Degree Days 12 6  
Month to date cooling degree days 171 214  
Year to date cooling degree days 765 698  
Since 1 June cooling degree days 619 631  
Growing Degree Days 26 (Base 50)    
Moisture  
Dew Point 69 °F    
Average Humidity 81    
Maximum Humidity 100    
Minimum Humidity 62    
Precipitation  
Precipitation 0.00 in 0.11 in 0.85 in (1963)
Month to date precipitation 5.13 3.33  
Year to date precipitation 29.19 29.25  
Sea Level Pressure  
Sea Level Pressure 30.00 in    
Wind  
Wind Speed 3 mph (North)    
Max Wind Speed 9 mph    
Max Gust Speed 12 mph    
Visibility 8 miles    
Events      
T = Trace of Precipitation, MM = Missing Value Source: NWS Daily Summary

Daily Weather History Graph

Daily Weather History Graph

Search for Another Location

Airport:

Trip Planner

Search our weather history database for the weather conditions in past years. The results will help you decide how hot, cold, wet, or windy it might be!

Date:

Astronomy

Aug. 29, 2013 Rise Set
Actual Time 6:45 AM EDT 7:55 PM EDT
Civil Twilight 6:17 AM EDT 8:22 PM EDT
Nautical Twilight 5:44 AM EDT 8:55 PM EDT
Astronomical Twilight 5:09 AM EDT 9:30 PM EDT
Moon 12:36 AM EDT (8/29) 3:21 PM EDT (8/29)
Length of Visible Light 14h 05m
Length of Day
13h 09m
Last Quarter, 38% of the Moon is Illuminated
Aug 29
Last Quarter
Sep 5
New
Sep 12
First Quarter
Sep 19
Full
Sep 26
Last Quarter

Hourly Weather History & Observations

Time (EDT) Temp. Heat Index Dew Point Humidity Pressure Visibility Wind Dir Wind Speed Gust Speed Precip Events Conditions
12:20 AM 71.6 °F - 69.8 °F 94% 29.95 in 10.0 mi North 8.1 mph - N/A   Overcast
12:53 AM 71.1 °F - 69.1 °F 93% 29.93 in 10.0 mi North 8.1 mph - N/A   Overcast
1:41 AM 71.6 °F - 69.8 °F 94% 29.96 in 10.0 mi North 5.8 mph - N/A   Overcast
1:53 AM 71.1 °F - 69.1 °F 93% 29.93 in 8.0 mi North 3.5 mph - N/A   Mostly Cloudy
2:06 AM 71.6 °F - 69.8 °F 94% 29.96 in 7.0 mi Calm Calm - N/A   Overcast
2:21 AM 71.6 °F - 69.8 °F 94% 29.95 in 6.0 mi Calm Calm - N/A   Overcast
2:53 AM 71.1 °F - 69.1 °F 93% 29.93 in 6.0 mi Calm Calm - N/A   Overcast
3:53 AM 71.1 °F - 69.1 °F 93% 29.94 in 7.0 mi NNE 3.5 mph - N/A   Overcast
4:35 AM 69.8 °F - 69.8 °F 100% 29.97 in 2.0 mi NNE 3.5 mph - N/A   Overcast
4:44 AM 69.8 °F - 69.8 °F 100% 29.97 in 1.5 mi Calm Calm - N/A   Overcast
4:53 AM 70.0 °F - 69.1 °F 97% 29.95 in 1.0 mi NNE 3.5 mph - N/A   Mist
5:04 AM 69.8 °F - 69.8 °F 100% 29.98 in 0.8 mi NNE 3.5 mph - N/A   Mist
5:26 AM 69.8 °F - 69.8 °F 100% 29.98 in 1.5 mi North 5.8 mph - N/A   Overcast
5:40 AM 69.8 °F - 69.8 °F 100% 29.99 in 3.0 mi North 3.5 mph - N/A   Overcast
5:53 AM 70.0 °F - 68.0 °F 93% 29.96 in 6.0 mi NNE 3.5 mph - N/A   Overcast
6:04 AM 69.8 °F - 69.8 °F 100% 29.99 in 5.0 mi NNE 4.6 mph - N/A   Overcast
6:35 AM 69.8 °F - 68.0 °F 94% 30.00 in 6.0 mi NE 4.6 mph - N/A   Overcast
6:53 AM 70.0 °F - 69.1 °F 97% 29.98 in 4.0 mi Calm Calm - N/A   Overcast
7:53 AM 70.0 °F - 68.0 °F 93% 30.01 in 4.0 mi NNE 5.8 mph - N/A   Overcast
8:53 AM 71.1 °F - 69.1 °F 93% 30.02 in 5.0 mi Calm Calm - N/A   Overcast
9:17 AM 73.4 °F - 69.8 °F 88% 30.04 in 7.0 mi NW 3.5 mph - N/A   Mostly Cloudy
9:33 AM 75.2 °F - 69.8 °F 83% 30.04 in 8.0 mi North 4.6 mph - N/A   Mostly Cloudy
9:53 AM 75.0 °F - 69.1 °F 82% 30.02 in 9.0 mi Variable 4.6 mph - N/A   Mostly Cloudy
10:04 AM 75.2 °F - 69.8 °F 83% 30.06 in 10.0 mi Variable 4.6 mph - N/A   Scattered Clouds
10:40 AM 78.8 °F - 69.8 °F 74% 30.06 in 9.0 mi Calm Calm - N/A   Mostly Cloudy
10:53 AM 77.0 °F - 69.1 °F 76% 30.03 in 10.0 mi Variable 3.5 mph - N/A   Overcast
11:04 AM 77.0 °F - 69.8 °F 78% 30.06 in 10.0 mi Variable 5.8 mph - N/A   Overcast
11:53 AM 78.1 °F - 69.1 °F 74% 30.04 in 10.0 mi North 3.5 mph - N/A   Mostly Cloudy
12:00 PM 77.0 °F - 68.0 °F 74% 30.07 in 10.0 mi Calm Calm - N/A   Mostly Cloudy
12:53 PM 80.1 °F 82.9 °F 69.1 °F 69% 30.03 in 10.0 mi Variable 4.6 mph - N/A   Mostly Cloudy
1:17 PM 80.6 °F 83.9 °F 69.8 °F 70% 30.06 in 10.0 mi NNE 5.8 mph - N/A   Mostly Cloudy
1:26 PM 80.6 °F 83.2 °F 68.0 °F 65% 30.06 in 10.0 mi NE 5.8 mph - N/A   Scattered Clouds
1:53 PM 82.0 °F 85.5 °F 69.1 °F 65% 30.03 in 10.0 mi North 4.6 mph - N/A   Scattered Clouds
2:53 PM 82.9 °F 85.8 °F 68.0 °F 60% 30.01 in 10.0 mi NW 5.8 mph - N/A   Partly Cloudy
3:53 PM 82.9 °F 86.5 °F 69.1 °F 63% 30.00 in 10.0 mi NE 4.6 mph - N/A   Clear
4:53 PM 80.1 °F 82.3 °F 66.9 °F 64% 30.01 in 10.0 mi NNE 6.9 mph - N/A   Mostly Cloudy
5:53 PM 82.9 °F 85.8 °F 68.0 °F 60% 30.00 in 10.0 mi North 6.9 mph - N/A   Partly Cloudy
6:53 PM 80.1 °F 82.9 °F 69.1 °F 69% 30.01 in 10.0 mi North 3.5 mph - N/A   Clear
7:53 PM 75.0 °F - 69.1 °F 82% 30.02 in 10.0 mi North 3.5 mph - N/A   Clear
8:53 PM 75.0 °F - 68.0 °F 79% 30.02 in 10.0 mi NNE 3.5 mph - N/A   Clear
9:53 PM 73.0 °F - 69.1 °F 87% 30.04 in 10.0 mi Calm Calm - N/A   Clear
10:53 PM 72.0 °F - 69.1 °F 91% 30.04 in 9.0 mi Calm Calm - N/A   Clear
11:53 PM 71.1 °F - 68.0 °F 90% 30.03 in 9.0 mi Calm Calm - N/A   Clear